| time (UTC) | temp F | wind direction | speed knots | gust knots | rain 1hr in | rain 24hr in | rain mn in | humidity % | barometer mb |
| 20260903010944 | 86 | 129 | 0.0 | 0.9 | 0.00 | 0.00 | 0.00 | 63 | 1017.3 |
| 20260903010439 | 86 | 127 | 0.0 | 0.9 | 0.00 | 0.00 | 0.00 | 62 | 1017.4 |
| 20260903005937 | 86 | 123 | 0.0 | 0.0 | 0.00 | 0.00 | 0.00 | 62 | 1017.3 |
| 20260903005427 | 87 | 123 | 0.0 | 0.0 | 0.00 | 0.00 | 0.00 | 62 | 1017.1 |
| 20260903004923 | 87 | 131 | 0.0 | 0.9 | 0.00 | 0.00 | 0.00 | 61 | 1017.2 |
| 20260903004418 | 87 | 132 | 0.0 | 0.9 | 0.00 | 0.00 | 0.00 | 61 | 1017.2 |
| 20260903003913 | 87 | 114 | 0.0 | 0.9 | 0.00 | 0.00 | 0.00 | 61 | 1017.0 |
| 20260903003413 | 87 | 125 | 0.0 | 0.9 | 0.00 | 0.00 | 0.00 | 60 | 1017.2 |
| 20260903002908 | 87 | 129 | 0.0 | 0.9 | 0.00 | 0.00 | 0.00 | 60 | 1017.0 |
| 20260903002403 | 87 | 123 | 0.0 | 0.0 | 0.00 | 0.00 | 0.00 | 60 | 1017.0 |
| 20260903001902 | 87 | 128 | 0.0 | 0.9 | 0.00 | 0.00 | 0.00 | 60 | 1017.1 |
| 20260903001357 | 88 | 119 | 0.0 | 0.9 | 0.00 | 0.00 | 0.00 | 59 | 1017.1 |
| 20260903000857 | 88 | 121 | 0.0 | 0.9 | 0.00 | 0.00 | 0.00 | 59 | 1017.1 |
| 20260903000355 | 88 | 118 | 0.0 | 0.9 | 0.00 | 0.00 | 0.00 | 59 | 1017.0 |
| 20260902235850 | 89 | 109 | 0.0 | 0.9 | 0.00 | 0.00 | 0.00 | 58 | 1017.2 |
| 20260902235346 | 89 | 120 | 0.0 | 0.0 | 0.00 | 0.00 | 0.00 | 58 | 1017.1 |
| 20260902234845 | 89 | 126 | 0.0 | 0.9 | 0.00 | 0.00 | 0.00 | 56 | 1017.0 |
| 20260902234345 | 90 | 111 | 0.0 | 0.0 | 0.00 | 0.00 | 0.00 | 56 | 1017.1 |
| 20260902233844 | 90 | 148 | 0.9 | 0.9 | 0.00 | 0.00 | 0.00 | 55 | 1017.1 |
| 20260902233339 | 90 | 90 | 0.9 | 1.7 | 0.00 | 0.00 | 0.00 | 54 | 1017.1 |
| 20260902232837 | 91 | 113 | 0.9 | 2.6 | 0.00 | 0.00 | 0.00 | 54 | 1017.2 |
| 20260902232332 | 91 | 123 | 0.0 | 1.7 | 0.00 | 0.00 | 0.00 | 54 | 1017.2 |
| 20260902231826 | 91 | 117 | 0.0 | 1.7 | 0.00 | 0.00 | 0.00 | 54 | 1017.1 |
| 20260902231321 | 92 | 136 | 0.9 | 1.7 | 0.00 | 0.00 | 0.00 | 53 | 1017.1 |
| 20260902230816 | 92 | 110 | 0.0 | 2.6 | 0.00 | 0.00 | 0.00 | 53 | 1017.4 |
| 20260902230315 | 92 | 96 | 1.7 | 3.5 | 0.00 | 0.00 | 0.00 | 52 | 1017.2 |
| 20260902225810 | 93 | 121 | 0.0 | 1.7 | 0.00 | 0.00 | 0.00 | 52 | 1017.4 |
| 20260902225306 | 93 | 126 | 0.9 | 1.7 | 0.00 | 0.00 | 0.00 | 51 | 1017.3 |
| 20260902224804 | 93 | 121 | 0.0 | 2.6 | 0.00 | 0.00 | 0.00 | 51 | 1017.2 |
| 20260902224259 | 93 | 215 | 0.9 | 1.7 | 0.00 | 0.00 | 0.00 | 51 | 1017.4 |
| 20260902223756 | 94 | 106 | 0.0 | 1.7 | 0.00 | 0.00 | 0.00 | 51 | 1017.2 |
| 20260902223255 | 94 | 129 | 0.0 | 1.7 | 0.00 | 0.00 | 0.00 | 50 | 1017.2 |
| 20260902222754 | 93 | 116 | 0.0 | 0.9 | 0.00 | 0.00 | 0.00 | 51 | 1017.3 |
| 20260902222248 | 93 | 115 | 0.0 | 0.9 | 0.00 | 0.00 | 0.00 | 50 | 1017.4 |
| 20260902221742 | 94 | 128 | 0.9 | 3.5 | 0.00 | 0.00 | 0.00 | 49 | 1017.4 |
| 20260902221242 | 95 | 122 | 0.0 | 0.9 | 0.00 | 0.00 | 0.00 | 47 | 1017.3 |
| 20260902220738 | 96 | 197 | 0.9 | 3.5 | 0.00 | 0.00 | 0.00 | 47 | 1017.2 |
| 20260902220237 | 96 | 114 | 0.0 | 2.6 | 0.00 | 0.00 | 0.00 | 47 | 1017.4 |
| 20260902215733 | 95 | 115 | 0.9 | 0.9 | 0.00 | 0.00 | 0.00 | 48 | 1017.2 |
| 20260902215229 | 95 | 72 | 0.9 | 1.7 | 0.00 | 0.00 | 0.00 | 47 | 1017.3 |
| 20260902214724 | 95 | 99 | 0.0 | 1.7 | 0.00 | 0.00 | 0.00 | 48 | 1017.4 |
| 20260902214222 | 96 | 136 | 1.7 | 5.2 | 0.00 | 0.00 | 0.00 | 46 | 1017.4 |
| 20260902213718 | 97 | 287 | 0.9 | 2.6 | 0.00 | 0.00 | 0.00 | 46 | 1017.4 |
| 20260902213213 | 97 | 133 | 0.0 | 1.7 | 0.00 | 0.00 | 0.00 | 47 | 1017.5 |
| 20260902212713 | 96 | 117 | 0.9 | 1.7 | 0.00 | 0.00 | 0.00 | 46 | 1017.4 |
| 20260902212209 | 97 | 139 | 1.7 | 7.0 | 0.00 | 0.00 | 0.00 | 45 | 1017.4 |
| 20260902211705 | 96 | 115 | 0.9 | 3.5 | 0.00 | 0.00 | 0.00 | 47 | 1017.4 |
| 20260902211200 | 95 | 117 | 0.0 | 0.9 | 0.00 | 0.00 | 0.00 | 48 | 1017.4 |
| 20260902210659 | 95 | 120 | 1.7 | 3.5 | 0.00 | 0.00 | 0.00 | 47 | 1017.7 |
| 20260902210155 | 96 | 111 | 0.9 | 1.7 | 0.00 | 0.00 | 0.00 | 46 | 1017.7 |
| 20260902205653 | 96 | 117 | 0.9 | 1.7 | 0.00 | 0.00 | 0.00 | 47 | 1017.7 |
| 20260902205148 | 96 | 100 | 0.9 | 2.6 | 0.00 | 0.00 | 0.00 | 46 | 1017.8 |
| 20260902204643 | 96 | 167 | 1.7 | 1.7 | 0.00 | 0.00 | 0.00 | 46 | 1017.5 |
| 20260902204138 | 97 | 240 | 1.7 | 2.6 | 0.00 | 0.00 | 0.00 | 46 | 1017.4 |
| 20260902203634 | 97 | 196 | 1.7 | 3.5 | 0.00 | 0.00 | 0.00 | 44 | 1017.8 |
| 20260902203133 | 97 | 125 | 0.9 | 2.6 | 0.00 | 0.00 | 0.00 | 44 | 1017.8 |
| 20260902202629 | 96 | 112 | 2.6 | 3.5 | 0.00 | 0.00 | 0.00 | 44 | 1017.8 |
| 20260902202125 | 96 | 120 | 0.9 | 2.6 | 0.00 | 0.00 | 0.00 | 45 | 1017.9 |
| 20260902201621 | 97 | 106 | 2.6 | 2.6 | 0.00 | 0.00 | 0.00 | 43 | 1017.8 |
| 20260902201115 | 98 | 127 | 1.7 | 6.1 | 0.00 | 0.00 | 0.00 | 43 | 1017.7 |
| 20260902200610 | 98 | 102 | 3.5 | 7.8 | 0.00 | 0.00 | 0.00 | 42 | 1017.9 |
| 20260902200106 | 97 | 120 | 0.9 | 1.7 | 0.00 | 0.00 | 0.00 | 44 | 1017.9 |
| 20260902195602 | 96 | 111 | 0.9 | 2.6 | 0.00 | 0.00 | 0.00 | 45 | 1018.1 |
| 20260902195100 | 97 | 119 | 0.9 | 1.7 | 0.00 | 0.00 | 0.00 | 44 | 1018.1 |
| 20260902194554 | 97 | 89 | 1.7 | 3.5 | 0.00 | 0.00 | 0.00 | 44 | 1018.2 |
| 20260902194050 | 96 | 105 | 2.6 | 5.2 | 0.00 | 0.00 | 0.00 | 46 | 1018.2 |
| 20260902193546 | 94 | 123 | 0.0 | 0.9 | 0.00 | 0.00 | 0.00 | 47 | 1018.2 |
| 20260902193045 | 94 | 104 | 2.6 | 2.6 | 0.00 | 0.00 | 0.00 | 46 | 1018.3 |
| 20260902192544 | 95 | 118 | 0.9 | 1.7 | 0.00 | 0.00 | 0.00 | 46 | 1018.4 |
| 20260902192043 | 96 | 121 | 0.0 | 3.5 | 0.00 | 0.00 | 0.00 | 47 | 1018.4 |
| 20260902191538 | 97 | 88 | 2.6 | 3.5 | 0.00 | 0.00 | 0.00 | 43 | 1018.4 |
| 20260902191032 | 98 | 111 | 1.7 | 3.5 | 0.00 | 0.00 | 0.00 | 42 | 1018.5 |
| 20260902190528 | 97 | 128 | 0.9 | 2.6 | 0.00 | 0.00 | 0.00 | 44 | 1018.6 |
| 20260902190024 | 97 | 78 | 1.7 | 5.2 | 0.00 | 0.00 | 0.00 | 42 | 1018.6 |
| 20260902185520 | 96 | 118 | 0.0 | 3.5 | 0.00 | 0.00 | 0.00 | 45 | 1018.5 |
| 20260902185015 | 96 | 114 | 2.6 | 5.2 | 0.00 | 0.00 | 0.00 | 46 | 1018.6 |
| 20260902184510 | 98 | 100 | 0.9 | 2.6 | 0.00 | 0.00 | 0.00 | 44 | 1018.7 |
| 20260902184005 | 98 | 113 | 0.0 | 2.6 | 0.00 | 0.00 | 0.00 | 46 | 1018.5 |
| 20260902183502 | 98 | 213 | 2.6 | 3.5 | 0.00 | 0.00 | 0.00 | 45 | 1018.8 |
| 20260902182957 | 98 | 257 | 4.3 | 6.1 | 0.00 | 0.00 | 0.00 | 44 | 1018.7 |
| 20260902182454 | 97 | 213 | 0.9 | 2.6 | 0.00 | 0.00 | 0.00 | 46 | 1019.0 |
| 20260902181949 | 96 | 114 | 1.7 | 2.6 | 0.00 | 0.00 | 0.00 | 47 | 1018.8 |
| 20260902181444 | 95 | 152 | 0.9 | 2.6 | 0.00 | 0.00 | 0.00 | 50 | 1018.9 |
| 20260902180944 | 93 | 108 | 0.9 | 2.6 | 0.00 | 0.00 | 0.00 | 51 | 1019.0 |
| 20260902180440 | 92 | 114 | 0.0 | 2.6 | 0.00 | 0.00 | 0.00 | 55 | 1019.2 |
| 20260902175936 | 92 | 119 | 1.7 | 5.2 | 0.00 | 0.00 | 0.00 | 52 | 1019.1 |
| 20260902175436 | 94 | 94 | 3.5 | 6.1 | 0.00 | 0.00 | 0.00 | 50 | 1019.0 |
| 20260902174931 | 93 | 129 | 0.9 | 5.2 | 0.00 | 0.00 | 0.00 | 52 | 1018.9 |
| 20260902174428 | 93 | 86 | 1.7 | 3.5 | 0.00 | 0.00 | 0.00 | 51 | 1019.1 |
| 20260902173924 | 94 | 112 | 1.7 | 2.6 | 0.00 | 0.00 | 0.00 | 50 | 1019.2 |
| 20260902173422 | 95 | 107 | 0.0 | 1.7 | 0.00 | 0.00 | 0.00 | 48 | 1019.3 |
| 20260902172918 | 95 | 124 | 0.0 | 5.2 | 0.00 | 0.00 | 0.00 | 49 | 1019.3 |
| 20260902172412 | 95 | 103 | 1.7 | 3.5 | 0.00 | 0.00 | 0.00 | 49 | 1019.3 |
| 20260902171907 | 94 | 131 | 0.9 | 5.2 | 0.00 | 0.00 | 0.00 | 51 | 1019.3 |
| 20260902171403 | 94 | 97 | 1.7 | 2.6 | 0.00 | 0.00 | 0.00 | 50 | 1019.4 |
| 20260902170859 | 93 | 202 | 1.7 | 2.6 | 0.00 | 0.00 | 0.00 | 49 | 1019.5 |
| 20260902170358 | 94 | 90 | 1.7 | 6.1 | 0.00 | 0.00 | 0.00 | 50 | 1019.4 |
| 20260902165854 | 94 | 93 | 2.6 | 3.5 | 0.00 | 0.00 | 0.00 | 49 | 1019.5 |
| 20260902165353 | 94 | 93 | 3.5 | 7.0 | 0.00 | 0.00 | 0.00 | 47 | 1019.5 |
| 20260902164848 | 94 | 108 | 1.7 | 2.6 | 0.00 | 0.00 | 0.00 | 48 | 1019.5 |
| 20260902164343 | 93 | 156 | 1.7 | 3.5 | 0.00 | 0.00 | 0.00 | 50 | 1019.5 |
| 20260902163843 | 93 | 124 | 0.9 | 5.2 | 0.00 | 0.00 | 0.00 | 49 | 1019.7 |
| 20260902163343 | 93 | 175 | 0.0 | 3.5 | 0.00 | 0.00 | 0.00 | 52 | 1019.6 |
| 20260902162841 | 92 | 95 | 1.7 | 2.6 | 0.00 | 0.00 | 0.00 | 54 | 1019.7 |
| 20260902162336 | 92 | 91 | 0.9 | 1.7 | 0.00 | 0.00 | 0.00 | 53 | 1019.8 |
| 20260902161831 | 92 | 209 | 2.6 | 5.2 | 0.00 | 0.00 | 0.00 | 52 | 1019.8 |
| 20260902161327 | 92 | 122 | 0.9 | 3.5 | 0.00 | 0.00 | 0.00 | 54 | 1019.7 |
| 20260902160823 | 91 | 112 | 1.7 | 2.6 | 0.00 | 0.00 | 0.00 | 54 | 1019.8 |
| 20260902160318 | 91 | 75 | 0.0 | 3.5 | 0.00 | 0.00 | 0.00 | 56 | 1020.0 |
| 20260902155816 | 91 | 102 | 1.7 | 2.6 | 0.00 | 0.00 | 0.00 | 54 | 1019.8 |
| 20260902155315 | 90 | 156 | 1.7 | 5.2 | 0.00 | 0.00 | 0.00 | 54 | 1019.9 |
| 20260902154810 | 90 | 115 | 4.3 | 6.1 | 0.00 | 0.00 | 0.00 | 54 | 1020.0 |
| 20260902154306 | 90 | 118 | 0.0 | 0.9 | 0.00 | 0.00 | 0.00 | 57 | 1020.0 |
| 20260902153804 | 90 | 244 | 5.2 | 7.8 | 0.00 | 0.00 | 0.00 | 56 | 1020.1 |
| 20260902153259 | 90 | 110 | 2.6 | 2.6 | 0.00 | 0.00 | 0.00 | 58 | 1020.1 |
| 20260902152755 | 90 | 172 | 0.9 | 2.6 | 0.00 | 0.00 | 0.00 | 59 | 1020.1 |
| 20260902152251 | 89 | 125 | 0.0 | 2.6 | 0.00 | 0.00 | 0.00 | 58 | 1020.1 |
| 20260902151751 | 89 | 126 | 0.0 | 2.6 | 0.00 | 0.00 | 0.00 | 60 | 1020.0 |
| 20260902151246 | 89 | 125 | 0.9 | 1.7 | 0.00 | 0.00 | 0.00 | 61 | 1020.1 |
| 20260902150745 | 89 | 125 | 1.7 | 2.6 | 0.00 | 0.00 | 0.00 | 60 | 1020.0 |
| 20260902150243 | 88 | 87 | 1.7 | 1.7 | 0.00 | 0.00 | 0.00 | 62 | 1020.2 |
| 20260902145741 | 87 | 137 | 1.7 | 2.6 | 0.00 | 0.00 | 0.00 | 64 | 1020.1 |
| 20260902145237 | 87 | 135 | 0.9 | 0.9 | 0.00 | 0.00 | 0.00 | 63 | 1020.0 |
| 20260902144732 | 87 | 147 | 0.9 | 2.6 | 0.00 | 0.00 | 0.00 | 64 | 1020.0 |
| 20260902144228 | 86 | 123 | 0.9 | 1.7 | 0.00 | 0.00 | 0.00 | 65 | 1020.1 |
| 20260902143723 | 86 | 118 | 0.0 | 1.7 | 0.00 | 0.00 | 0.00 | 65 | 1020.2 |
| 20260902143218 | 86 | 123 | 1.7 | 2.6 | 0.00 | 0.00 | 0.00 | 66 | 1020.2 |
| 20260902142714 | 86 | 131 | 0.9 | 0.9 | 0.00 | 0.00 | 0.00 | 66 | 1020.1 |
| 20260902142209 | 85 | 104 | 1.7 | 1.7 | 0.00 | 0.00 | 0.00 | 67 | 1020.1 |
| 20260902141709 | 85 | 117 | 0.0 | 0.9 | 0.00 | 0.00 | 0.00 | 67 | 1020.1 |
| 20260902141205 | 84 | 69 | 0.9 | 0.9 | 0.00 | 0.00 | 0.00 | 67 | 1020.2 |
| 20260902140701 | 84 | 111 | 0.0 | 2.6 | 0.00 | 0.00 | 0.00 | 68 | 1020.0 |
| 20260902140200 | 84 | 113 | 0.9 | 1.7 | 0.00 | 0.00 | 0.00 | 69 | 1020.2 |
| 20260902135659 | 83 | 109 | 0.0 | 2.6 | 0.00 | 0.00 | 0.00 | 70 | 1019.9 |
| 20260902135155 | 83 | 125 | 0.9 | 1.7 | 0.00 | 0.00 | 0.00 | 71 | 1020.1 |
| 20260902134650 | 82 | 129 | 0.0 | 1.7 | 0.00 | 0.00 | 0.00 | 72 | 1020.2 |
| 20260902134150 | 82 | 125 | 0.0 | 0.9 | 0.00 | 0.00 | 0.00 | 73 | 1020.0 |
| 20260902133645 | 82 | 116 | 0.0 | 0.9 | 0.00 | 0.00 | 0.00 | 73 | 1020.1 |
| 20260902133140 | 81 | 108 | 0.0 | 2.6 | 0.00 | 0.00 | 0.00 | 73 | 1020.3 |
| 20260902132635 | 81 | 122 | 0.9 | 0.9 | 0.00 | 0.00 | 0.00 | 73 | 1020.1 |
| 20260902132131 | 81 | 131 | 0.0 | 1.7 | 0.00 | 0.00 | 0.00 | 74 | 1020.2 |
| 20260902131626 | 80 | 122 | 0.9 | 2.6 | 0.00 | 0.00 | 0.00 | 74 | 1020.0 |
| 20260902131121 | 80 | 120 | 0.0 | 0.0 | 0.00 | 0.00 | 0.00 | 75 | 1020.1 |
| 20260902130617 | 80 | 112 | 0.0 | 0.0 | 0.00 | 0.00 | 0.00 | 76 | 1020.0 |
| 20260902130117 | 80 | 116 | 0.0 | 0.9 | 0.00 | 0.00 | 0.00 | 76 | 1020.1 |
| 20260902125613 | 80 | 129 | 0.0 | 0.9 | 0.00 | 0.00 | 0.00 | 76 | 1019.9 |
| 20260902125108 | 79 | 123 | 0.0 | 0.9 | 0.00 | 0.00 | 0.00 | 77 | 1019.9 |
| 20260902124606 | 79 | 121 | 0.0 | 0.9 | 0.00 | 0.00 | 0.00 | 77 | 1020.0 |
| 20260902124105 | 79 | 133 | 0.0 | 0.0 | 0.00 | 0.00 | 0.00 | 77 | 1020.0 |
| 20260902123600 | 79 | 124 | 0.0 | 0.9 | 0.00 | 0.00 | 0.00 | 77 | 1019.8 |
| 20260902123056 | 78 | 120 | 0.0 | 0.9 | 0.00 | 0.00 | 0.00 | 77 | 1019.8 |
| 20260902122555 | 78 | 114 | 0.0 | 0.0 | 0.00 | 0.00 | 0.00 | 78 | 1019.7 |
| 20260902122051 | 78 | 126 | 0.0 | 0.0 | 0.00 | 0.00 | 0.00 | 78 | 1019.8 |
| 20260902121551 | 78 | 115 | 0.0 | 0.9 | 0.00 | 0.00 | 0.00 | 78 | 1019.6 |
| 20260902121046 | 78 | 174 | 0.9 | 1.7 | 0.00 | 0.00 | 0.00 | 79 | 1019.7 |
| 20260902120542 | 77 | 178 | 0.9 | 1.7 | 0.00 | 0.00 | 0.00 | 79 | 1019.8 |
| 20260902120038 | 77 | 133 | 0.0 | 0.9 | 0.00 | 0.00 | 0.00 | 80 | 1019.7 |
| 20260902115538 | 77 | 125 | 0.0 | 0.9 | 0.00 | 0.00 | 0.00 | 80 | 1019.6 |
| 20260902115035 | 76 | 117 | 0.0 | 0.9 | 0.00 | 0.00 | 0.00 | 81 | 1019.6 |
| 20260902114531 | 76 | 110 | 0.0 | 0.9 | 0.00 | 0.00 | 0.00 | 81 | 1019.6 |
| 20260902114030 | 76 | 117 | 0.0 | 0.0 | 0.00 | 0.00 | 0.00 | 81 | 1019.5 |
| 20260902113526 | 76 | 115 | 0.0 | 0.9 | 0.00 | 0.00 | 0.00 | 81 | 1019.2 |
| 20260902113021 | 76 | 115 | 0.0 | 0.0 | 0.00 | 0.00 | 0.00 | 81 | 1019.6 |
| 20260902112516 | 76 | 123 | 0.0 | 0.9 | 0.00 | 0.00 | 0.00 | 81 | 1019.3 |
| 20260902112013 | 75 | 117 | 0.0 | 1.7 | 0.00 | 0.00 | 0.00 | 82 | 1019.1 |
| 20260902111510 | 75 | 118 | 0.0 | 0.0 | 0.00 | 0.00 | 0.00 | 83 | 1019.2 |
| 20260902111005 | 75 | 118 | 0.0 | 0.9 | 0.00 | 0.00 | 0.00 | 83 | 1019.1 |
| 20260902110501 | 75 | 113 | 0.0 | 0.0 | 0.00 | 0.00 | 0.00 | 83 | 1019.1 |
| 20260902110001 | 75 | 123 | 0.0 | 0.0 | 0.00 | 0.00 | 0.00 | 83 | 1019.3 |
| 20260902105451 | 75 | 117 | 0.0 | 0.0 | 0.00 | 0.00 | 0.00 | 83 | 1019.2 |
| 20260902104950 | 75 | 127 | 0.0 | 0.0 | 0.00 | 0.00 | 0.00 | 83 | 1019.2 |
| 20260902104446 | 75 | 116 | 0.0 | 0.0 | 0.00 | 0.00 | 0.00 | 83 | 1019.4 |
| 20260902103947 | 75 | 122 | 0.0 | 0.0 | 0.00 | 0.00 | 0.00 | 84 | 1019.1 |
| 20260902103442 | 74 | 122 | 0.0 | 0.9 | 0.00 | 0.00 | 0.00 | 85 | 1019.1 |
| 20260902102937 | 74 | 122 | 0.0 | 1.7 | 0.00 | 0.00 | 0.00 | 86 | 1019.1 |
| 20260902102434 | 74 | 127 | 0.0 | 0.0 | 0.00 | 0.00 | 0.00 | 86 | 1019.2 |
| 20260902101930 | 74 | 126 | 0.0 | 0.0 | 0.00 | 0.00 | 0.00 | 86 | 1019.1 |
| 20260902101430 | 75 | 126 | 0.0 | 0.0 | 0.00 | 0.00 | 0.00 | 85 | 1019.2 |
| 20260902100930 | 75 | 125 | 0.0 | 0.0 | 0.00 | 0.00 | 0.00 | 85 | 1019.0 |
| 20260902100429 | 75 | 125 | 0.0 | 0.9 | 0.00 | 0.00 | 0.00 | 85 | 1019.0 |
| 20260902095924 | 75 | 120 | 0.0 | 0.0 | 0.00 | 0.00 | 0.00 | 85 | 1019.1 |
| 20260902095419 | 74 | 130 | 0.0 | 0.0 | 0.00 | 0.00 | 0.00 | 85 | 1019.1 |
| 20260902094918 | 74 | 130 | 0.0 | 0.0 | 0.00 | 0.00 | 0.00 | 86 | 1019.0 |
| 20260902094414 | 74 | 129 | 0.0 | 0.0 | 0.00 | 0.00 | 0.00 | 86 | 1019.1 |
| 20260902093914 | 74 | 129 | 0.0 | 0.0 | 0.00 | 0.00 | 0.00 | 86 | 1019.2 |
| 20260902093409 | 74 | 129 | 0.0 | 0.0 | 0.00 | 0.00 | 0.00 | 85 | 1019.3 |
| 20260902092908 | 74 | 129 | 0.0 | 0.0 | 0.00 | 0.00 | 0.00 | 85 | 1019.1 |
| 20260902092404 | 74 | 129 | 0.0 | 0.0 | 0.00 | 0.00 | 0.00 | 85 | 1018.9 |
| 20260902091904 | 75 | 129 | 0.0 | 0.0 | 0.00 | 0.00 | 0.00 | 85 | 1019.1 |
| 20260902091359 | 75 | 129 | 0.0 | 0.0 | 0.00 | 0.00 | 0.00 | 85 | 1018.9 |
| 20260902090856 | 75 | 129 | 0.0 | 0.0 | 0.00 | 0.00 | 0.00 | 85 | 1019.0 |
| 20260902090356 | 75 | 129 | 0.0 | 0.0 | 0.00 | 0.00 | 0.00 | 85 | 1018.8 |
| 20260902085855 | 75 | 129 | 0.0 | 0.0 | 0.00 | 0.00 | 0.00 | 84 | 1018.8 |
| 20260902085350 | 75 | 129 | 0.0 | 0.0 | 0.00 | 0.00 | 0.00 | 85 | 1018.9 |
| 20260902084846 | 75 | 129 | 0.0 | 0.0 | 0.00 | 0.00 | 0.00 | 84 | 1018.8 |
| 20260902084342 | 75 | 129 | 0.0 | 0.0 | 0.00 | 0.00 | 0.00 | 84 | 1018.5 |
| 20260902083837 | 76 | 129 | 0.0 | 0.0 | 0.00 | 0.00 | 0.00 | 84 | 1018.7 |
| 20260902083337 | 76 | 129 | 0.0 | 0.0 | 0.00 | 0.00 | 0.00 | 83 | 1018.5 |
| 20260902082832 | 76 | 129 | 0.0 | 0.0 | 0.00 | 0.00 | 0.00 | 83 | 1018.6 |
| 20260902082328 | 76 | 129 | 0.0 | 0.0 | 0.00 | 0.00 | 0.00 | 83 | 1018.6 |
| 20260902081825 | 76 | 129 | 0.0 | 0.0 | 0.00 | 0.00 | 0.00 | 82 | 1018.4 |
| 20260902081320 | 76 | 129 | 0.0 | 0.0 | 0.00 | 0.00 | 0.00 | 82 | 1018.4 |
| 20260902080815 | 76 | 128 | 0.0 | 0.0 | 0.00 | 0.00 | 0.00 | 82 | 1018.4 |
| 20260902080312 | 76 | 123 | 0.0 | 0.0 | 0.00 | 0.00 | 0.00 | 82 | 1018.3 |
| 20260902075811 | 76 | 122 | 0.0 | 0.9 | 0.00 | 0.00 | 0.00 | 82 | 1018.4 |
| 20260902075308 | 76 | 125 | 0.0 | 0.0 | 0.00 | 0.00 | 0.00 | 82 | 1018.3 |
| 20260902074808 | 76 | 125 | 0.0 | 0.0 | 0.00 | 0.00 | 0.00 | 82 | 1018.3 |
| 20260902074303 | 76 | 125 | 0.0 | 0.0 | 0.00 | 0.00 | 0.00 | 81 | 1018.3 |
| 20260902073758 | 77 | 124 | 0.0 | 0.0 | 0.00 | 0.00 | 0.00 | 81 | 1018.3 |
| 20260902073254 | 77 | 124 | 0.0 | 0.0 | 0.00 | 0.00 | 0.00 | 81 | 1018.5 |
| 20260902072750 | 77 | 121 | 0.0 | 0.0 | 0.00 | 0.00 | 0.00 | 81 | 1018.3 |
| 20260902072245 | 77 | 121 | 0.0 | 0.0 | 0.00 | 0.00 | 0.00 | 80 | 1018.2 |
| 20260902071742 | 77 | 122 | 0.0 | 0.0 | 0.00 | 0.00 | 0.00 | 80 | 1018.3 |
| 20260902071236 | 77 | 122 | 0.0 | 0.0 | 0.00 | 0.00 | 0.00 | 80 | 1018.3 |
| 20260902070733 | 77 | 117 | 0.0 | 0.0 | 0.00 | 0.00 | 0.00 | 80 | 1018.4 |
| 20260902070232 | 77 | 117 | 0.0 | 0.9 | 0.00 | 0.00 | 0.00 | 80 | 1018.4 |
| 20260902065731 | 77 | 117 | 0.0 | 0.0 | 0.00 | 0.00 | 0.00 | 79 | 1018.4 |
| 20260902065227 | 78 | 117 | 0.0 | 0.0 | 0.00 | 0.00 | 0.00 | 79 | 1018.3 |
| 20260902064722 | 78 | 117 | 0.0 | 0.0 | 0.00 | 0.00 | 0.00 | 78 | 1018.2 |
| 20260902064218 | 78 | 121 | 0.0 | 0.0 | 0.00 | 0.00 | 0.00 | 78 | 1018.1 |
| 20260902063714 | 78 | 121 | 0.0 | 0.0 | 0.00 | 0.00 | 0.00 | 78 | 1018.3 |
| 20260902063214 | 78 | 115 | 0.0 | 0.9 | 0.00 | 0.00 | 0.00 | 77 | 1018.2 |
| 20260902062713 | 78 | 134 | 0.0 | 0.9 | 0.00 | 0.00 | 0.00 | 76 | 1018.5 |
| 20260902062208 | 79 | 116 | 0.0 | 0.9 | 0.00 | 0.00 | 0.00 | 76 | 1018.4 |
| 20260902061707 | 79 | 122 | 0.0 | 0.0 | 0.00 | 0.00 | 0.00 | 75 | 1018.3 |
| 20260902061203 | 79 | 115 | 0.0 | 0.9 | 0.00 | 0.00 | 0.00 | 75 | 1018.3 |
| 20260902060659 | 79 | 117 | 0.0 | 0.0 | 0.00 | 0.00 | 0.00 | 75 | 1018.2 |
| 20260902060155 | 80 | 115 | 0.0 | 0.9 | 0.00 | 0.00 | 0.00 | 74 | 1018.4 |
| 20260902055651 | 80 | 115 | 0.0 | 0.9 | 0.00 | 0.00 | 0.00 | 74 | 1018.4 |
| 20260902055147 | 80 | 117 | 0.0 | 0.9 | 0.00 | 0.00 | 0.00 | 74 | 1018.4 |
| 20260902054641 | 80 | 116 | 0.0 | 0.9 | 0.00 | 0.00 | 0.00 | 73 | 1018.4 |
| 20260902054137 | 80 | 110 | 0.9 | 0.9 | 0.00 | 0.00 | 0.00 | 73 | 1018.3 |
| 20260902053633 | 80 | 120 | 0.0 | 1.7 | 0.00 | 0.00 | 0.00 | 72 | 1018.4 |
| 20260902053132 | 80 | 112 | 0.0 | 0.9 | 0.00 | 0.00 | 0.00 | 72 | 1018.3 |
| 20260902052626 | 80 | 113 | 0.0 | 0.9 | 0.00 | 0.00 | 0.00 | 72 | 1018.5 |
| 20260902052122 | 81 | 116 | 0.0 | 0.0 | 0.00 | 0.00 | 0.00 | 72 | 1018.5 |
| 20260902051621 | 81 | 120 | 0.0 | 0.0 | 0.00 | 0.00 | 0.00 | 72 | 1018.4 |
| 20260902051116 | 81 | 118 | 0.0 | 0.0 | 0.00 | 0.00 | 0.00 | 71 | 1018.6 |
| 20260902050615 | 81 | 133 | 0.9 | 0.9 | 0.00 | 0.00 | 0.00 | 71 | 1018.5 |
| 20260902050111 | 81 | 121 | 0.0 | 0.9 | 0.00 | 0.00 | 0.00 | 71 | 1018.4 |
| 20260902045606 | 81 | 106 | 0.9 | 0.9 | 0.00 | 0.00 | 0.00 | 70 | 1018.4 |
| 20260902045103 | 81 | 117 | 0.0 | 0.9 | 0.00 | 0.00 | 0.00 | 71 | 1018.5 |
| 20260902044602 | 81 | 144 | 0.9 | 0.9 | 0.00 | 0.00 | 0.00 | 71 | 1018.5 |
| 20260902044058 | 81 | 125 | 0.0 | 0.9 | 0.00 | 0.00 | 0.00 | 72 | 1018.5 |
| 20260902043553 | 81 | 127 | 0.0 | 0.9 | 0.00 | 0.00 | 0.00 | 72 | 1018.4 |
| 20260902043048 | 80 | 136 | 0.0 | 0.9 | 0.00 | 0.00 | 0.00 | 73 | 1018.6 |
| 20260902042548 | 80 | 129 | 0.0 | 0.9 | 0.00 | 0.00 | 0.00 | 74 | 1018.5 |
| 20260902042043 | 80 | 130 | 0.0 | 0.0 | 0.00 | 0.00 | 0.00 | 74 | 1018.5 |
| 20260902041543 | 80 | 130 | 0.0 | 0.0 | 0.00 | 0.00 | 0.00 | 74 | 1018.4 |
| 20260902041038 | 80 | 130 | 0.0 | 0.0 | 0.00 | 0.00 | 0.00 | 74 | 1018.5 |
| 20260902040537 | 80 | 130 | 0.0 | 0.0 | 0.00 | 0.00 | 0.00 | 73 | 1018.6 |
| 20260902040033 | 80 | 130 | 0.0 | 0.0 | 0.00 | 0.00 | 0.00 | 73 | 1018.6 |
| 20260902035531 | 80 | 130 | 0.0 | 0.0 | 0.00 | 0.00 | 0.00 | 73 | 1018.7 |
| 20260902035027 | 80 | 130 | 0.0 | 0.0 | 0.00 | 0.00 | 0.00 | 73 | 1018.5 |
| 20260902034526 | 81 | 130 | 0.0 | 0.0 | 0.00 | 0.00 | 0.00 | 73 | 1018.6 |
| 20260902034025 | 81 | 130 | 0.0 | 0.0 | 0.00 | 0.00 | 0.00 | 72 | 1018.4 |
| 20260902033525 | 81 | 130 | 0.0 | 0.0 | 0.00 | 0.00 | 0.00 | 72 | 1018.4 |
| 20260902033019 | 81 | 130 | 0.0 | 0.0 | 0.00 | 0.00 | 0.00 | 71 | 1018.4 |
| 20260902032513 | 82 | 125 | 0.0 | 0.9 | 0.00 | 0.00 | 0.00 | 71 | 1018.5 |
| 20260902032009 | 82 | 130 | 0.0 | 0.0 | 0.00 | 0.00 | 0.00 | 70 | 1018.5 |
| 20260902031509 | 82 | 131 | 0.0 | 0.0 | 0.00 | 0.00 | 0.00 | 70 | 1018.5 |
| 20260902031005 | 82 | 128 | 0.0 | 0.9 | 0.00 | 0.00 | 0.00 | 70 | 1018.5 |
| 20260902030505 | 82 | 135 | 0.0 | 0.9 | 0.00 | 0.00 | 0.00 | 70 | 1018.4 |
| 20260902030004 | 82 | 135 | 0.0 | 0.9 | 0.00 | 0.00 | 0.00 | 69 | 1018.4 |
| 20260902025459 | 83 | 135 | 0.9 | 0.9 | 0.00 | 0.00 | 0.00 | 69 | 1018.5 |
| 20260902024954 | 83 | 135 | 0.0 | 0.9 | 0.00 | 0.00 | 0.00 | 68 | 1018.4 |
| 20260902024450 | 83 | 135 | 0.0 | 0.9 | 0.00 | 0.00 | 0.00 | 68 | 1018.6 |
| 20260902023949 | 83 | 134 | 0.0 | 0.0 | 0.00 | 0.00 | 0.00 | 68 | 1018.4 |
| 20260902023446 | 83 | 135 | 0.0 | 0.9 | 0.00 | 0.00 | 0.00 | 68 | 1018.7 |
| 20260902022945 | 83 | 134 | 0.0 | 0.0 | 0.00 | 0.00 | 0.00 | 69 | 1018.6 |
| 20260902022440 | 82 | 134 | 0.0 | 0.9 | 0.00 | 0.00 | 0.00 | 69 | 1018.5 |
| 20260902021937 | 83 | 134 | 0.0 | 0.0 | 0.00 | 0.00 | 0.00 | 69 | 1018.5 |
| 20260902021436 | 83 | 134 | 0.0 | 0.0 | 0.00 | 0.00 | 0.00 | 69 | 1018.5 |
| 20260902020932 | 83 | 134 | 0.0 | 0.0 | 0.00 | 0.00 | 0.00 | 68 | 1018.5 |
| 20260902020428 | 84 | 134 | 0.0 | 0.0 | 0.00 | 0.00 | 0.00 | 68 | 1018.6 |
| 20260902015923 | 84 | 134 | 0.0 | 0.0 | 0.00 | 0.00 | 0.00 | 68 | 1018.5 |
| 20260902015419 | 84 | 134 | 0.0 | 0.0 | 0.00 | 0.00 | 0.00 | 67 | 1018.5 |
| 20260902014914 | 84 | 134 | 0.0 | 0.9 | 0.00 | 0.00 | 0.00 | 67 | 1018.4 |
| 20260902014411 | 84 | 133 | 0.0 | 0.0 | 0.00 | 0.00 | 0.00 | 68 | 1018.5 |
| 20260902013910 | 84 | 133 | 0.0 | 0.0 | 0.00 | 0.00 | 0.00 | 68 | 1018.5 |
| 20260902013406 | 84 | 133 | 0.0 | 0.0 | 0.00 | 0.00 | 0.00 | 67 | 1018.3 |
| 20260902012901 | 84 | 133 | 0.0 | 0.0 | 0.00 | 0.00 | 0.00 | 67 | 1018.3 |
| 20260902012357 | 85 | 133 | 0.0 | 0.9 | 0.00 | 0.00 | 0.00 | 66 | 1018.3 |
| 20260902011853 | 85 | 127 | 0.0 | 0.0 | 0.00 | 0.00 | 0.00 | 66 | 1018.3 |
| 20260902011353 | 85 | 127 | 0.0 | 0.0 | 0.00 | 0.00 | 0.00 | 66 | 1018.2 |